Weather History for Wilmington, NC

Change the Weather History Date:

Thursday, September 26, 2013

  Actual Average Record
Temperature  
Mean Temperature 72 °F 72 °F  
Max Temperature 80 °F 81 °F 93 °F (1986)
Min Temperature 63 °F 62 °F 47 °F (1950)
Degree Days  
Heating Degree Days 0 0  
Month to date heating degree days 0 0  
Since 1 July heating degree days 0 0  
Cooling Degree Days 7 7  
Month to date cooling degree days 261 269  
Year to date cooling degree days 1751 1892  
Growing Degree Days 22 (Base 50)    
Moisture  
Dew Point 59 °F    
Average Humidity 71    
Maximum Humidity 93    
Minimum Humidity 48    
Precipitation  
Precipitation 0.01 in 0.25 in 2.09 in (1872)
Month to date precipitation 1.04 6.91  
Year to date precipitation 43.53 45.88  
Sea Level Pressure  
Sea Level Pressure 29.90 in    
Wind  
Wind Speed 8 mph (NNE)    
Max Wind Speed 14 mph    
Max Gust Speed 16 mph    
Visibility 10 miles    
Events Rain    
T = Trace of Precipitation, MM = Missing Value Source: NWS Daily Summary

Daily Weather History Graph

Daily Weather History Graph

Search for Another Location

Airport:

Trip Planner

Search our weather history database for the weather conditions in past years. The results will help you decide how hot, cold, wet, or windy it might be!

Date:

Astronomy

Sep. 26, 2013 Rise Set
Actual Time 7:02 AM EDT 7:02 PM EDT
Civil Twilight 6:37 AM EDT 7:27 PM EDT
Nautical Twilight 6:08 AM EDT 7:56 PM EDT
Astronomical Twilight 5:39 AM EDT 8:25 PM EDT
Moon No Moon Rise 1:40 PM EDT (9/26)
Length of Visible Light 12h 49m
Length of Day
11h 59m
Waning Gibbous, 55% of the Moon is Illuminated
Sep 26
Waning Gibbous
Sep 26
Last Quarter
Oct 4
New
Oct 11
First Quarter
Oct 18
Full

Hourly Weather History & Observations

Time (EDT) Temp. Dew Point Humidity Pressure Visibility Wind Dir Wind Speed Gust Speed Precip Events Conditions
12:53 AM 64.9 °F 59.0 °F 81% 29.85 in 10.0 mi NNE 8.1 mph - N/A   Clear
1:53 AM 64.9 °F 59.0 °F 81% 29.85 in 10.0 mi NNE 8.1 mph - 0.00 in Rain Light Rain
2:53 AM 64.0 °F 60.1 °F 87% 29.85 in 10.0 mi NNE 6.9 mph - 0.00 in   Overcast
3:53 AM 63.0 °F 60.1 °F 90% 29.84 in 10.0 mi NNE 9.2 mph - 0.00 in   Overcast
4:53 AM 63.0 °F 60.1 °F 90% 29.85 in 10.0 mi NNE 4.6 mph - 0.01 in Rain Light Rain
5:53 AM 63.0 °F 60.1 °F 90% 29.86 in 10.0 mi North 5.8 mph - 0.00 in Rain Light Rain
6:53 AM 63.0 °F 60.1 °F 90% 29.87 in 10.0 mi NNE 5.8 mph - 0.00 in Rain Light Rain
7:53 AM 63.0 °F 60.1 °F 90% 29.88 in 10.0 mi North 5.8 mph - 0.00 in   Overcast
8:53 AM 64.9 °F 60.1 °F 84% 29.89 in 10.0 mi NE 9.2 mph - N/A   Overcast
9:53 AM 71.1 °F 60.1 °F 68% 29.90 in 10.0 mi NNE 10.4 mph - N/A   Clear
10:53 AM 73.9 °F 57.9 °F 57% 29.91 in 10.0 mi NNE 12.7 mph - N/A   Clear
11:53 AM 75.9 °F 57.9 °F 54% 29.91 in 10.0 mi North 9.2 mph - N/A   Clear
12:53 PM 75.9 °F 57.9 °F 54% 29.90 in 10.0 mi NNW 8.1 mph - N/A   Partly Cloudy
1:53 PM 78.1 °F 57.9 °F 50% 29.89 in 10.0 mi NNE 6.9 mph - N/A   Partly Cloudy
2:53 PM 78.1 °F 57.9 °F 50% 29.88 in 10.0 mi North 6.9 mph - N/A   Scattered Clouds
3:53 PM 78.1 °F 57.9 °F 50% 29.88 in 10.0 mi NNE 8.1 mph - N/A   Scattered Clouds
4:53 PM 78.1 °F 59.0 °F 52% 29.88 in 10.0 mi North 12.7 mph 16.1 mph N/A   Overcast
5:53 PM 75.9 °F 57.9 °F 54% 29.90 in 10.0 mi North 9.2 mph - N/A   Overcast
6:53 PM 75.0 °F 59.0 °F 57% 29.91 in 10.0 mi North 5.8 mph - N/A   Overcast
7:53 PM 71.1 °F 59.0 °F 66% 29.93 in 10.0 mi North 5.8 mph - N/A   Overcast
8:53 PM 69.1 °F 57.9 °F 68% 29.95 in 10.0 mi NNE 6.9 mph - N/A   Clear
9:53 PM 66.0 °F 57.9 °F 75% 29.96 in 10.0 mi NNE 8.1 mph - N/A   Clear
10:53 PM 64.9 °F 57.9 °F 78% 29.98 in 10.0 mi NE 9.2 mph - N/A   Clear
11:53 PM 64.0 °F 57.9 °F 80% 29.98 in 10.0 mi NNE 9.2 mph - N/A   Clear